カタログに戻る

BD-17

運用中ナビゲーションGEO
NORAD 40549·PAYLOAD·🇨🇳 China

打ち上げ Mar 30, 2015 から Xichang Satellite Launch Center

Loading…

TLE

最新Source: Space-Track

元期: Sep 13, 2026, 01:51 UTC

1 40549U 15019A   26256.07752948 -.00000168  00000-0  00000-0 0  9997
2 40549  49.0267 294.3950 0038756 200.8292 340.5769  1.00289448 41955

AllMySatでBD-17をリアルタイム追跡

Download on the App Store